| time (UTC) | temp C | wind direction | speed KPH | gust KPH | rain 1hr cm | rain 24hr cm | rain mn cm | humidity % | barometer mb |
| 20260903010106 | 29 | 227 | 4.8 | 11.3 | 0.00 | 0.00 | 0.00 | 70 | 1017.6 |
| 20260903004602 | 30 | 225 | 4.8 | 11.3 | 0.00 | 0.00 | 0.00 | 69 | 1017.5 |
| 20260903003104 | 30 | 223 | 3.2 | 9.7 | 0.00 | 0.00 | 0.00 | 68 | 1017.6 |
| 20260903001601 | 30 | 217 | 1.6 | 11.3 | 0.00 | 0.00 | 0.00 | 66 | 1017.5 |
| 20260903000100 | 31 | 227 | 1.6 | 14.5 | 0.00 | 0.00 | 0.00 | 65 | 1017.4 |
| 20260902234601 | 31 | 220 | 4.8 | 16.1 | 0.00 | 0.00 | 0.00 | 64 | 1017.4 |
| 20260902233100 | 31 | 216 | 6.4 | 16.1 | 0.00 | 0.00 | 0.00 | 64 | 1017.4 |
| 20260902231603 | 31 | 157 | 6.4 | 19.3 | 0.00 | 0.00 | 0.00 | 62 | 1017.3 |
| 20260902230115 | 32 | 238 | 6.4 | 24.1 | 0.00 | 0.00 | 0.00 | 61 | 1017.4 |
| 20260902224601 | 32 | 207 | 11.3 | 25.7 | 0.00 | 0.00 | 0.00 | 59 | 1017.4 |
| 20260902223119 | 32 | 186 | 11.3 | 24.1 | 0.00 | 0.00 | 0.00 | 58 | 1017.5 |
| 20260902221602 | 33 | 242 | 8.0 | 20.9 | 0.00 | 0.00 | 0.00 | 57 | 1017.5 |
| 20260902220111 | 33 | 214 | 8.0 | 22.5 | 0.00 | 0.00 | 0.00 | 57 | 1017.6 |
| 20260902214614 | 34 | 242 | 6.4 | 19.3 | 0.00 | 0.00 | 0.00 | 56 | 1017.6 |
| 20260902213110 | 34 | 223 | 3.2 | 20.9 | 0.00 | 0.00 | 0.00 | 58 | 1017.6 |
| 20260902211606 | 34 | 226 | 9.7 | 24.1 | 0.00 | 0.00 | 0.00 | 54 | 1017.6 |
| 20260902210103 | 34 | 184 | 11.3 | 19.3 | 0.00 | 0.00 | 0.00 | 55 | 1017.8 |
| 20260902204605 | 34 | 218 | 4.8 | 24.1 | 0.00 | 0.00 | 0.00 | 57 | 1017.9 |
| 20260902203104 | 34 | 209 | 9.7 | 25.7 | 0.00 | 0.00 | 0.00 | 55 | 1018.0 |
| 20260902201604 | 35 | 225 | 11.3 | 19.3 | 0.00 | 0.00 | 0.00 | 54 | 1018.2 |
| 20260902200105 | 35 | 166 | 9.7 | 24.1 | 0.00 | 0.00 | 0.00 | 54 | 1018.4 |
| 20260902194615 | 35 | 215 | 6.4 | 22.5 | 0.00 | 0.00 | 0.00 | 53 | 1018.5 |
| 20260902193124 | 35 | 227 | 9.7 | 19.3 | 0.00 | 0.00 | 0.00 | 52 | 1018.8 |
| 20260902191605 | 35 | 193 | 4.8 | 17.7 | 0.00 | 0.00 | 0.00 | 53 | 1018.7 |
| 20260902190108 | 36 | 244 | 4.8 | 19.3 | 0.00 | 0.00 | 0.00 | 51 | 1018.9 |
| 20260902184623 | 35 | 261 | 4.8 | 27.4 | 0.00 | 0.00 | 0.00 | 52 | 1019.0 |
| 20260902183121 | 35 | 165 | 6.4 | 19.3 | 0.00 | 0.00 | 0.00 | 53 | 1019.1 |
| 20260902181604 | 35 | 216 | 9.7 | 27.4 | 0.00 | 0.00 | 0.00 | 51 | 1019.4 |
| 20260902180106 | 36 | 197 | 4.8 | 20.9 | 0.00 | 0.00 | 0.00 | 52 | 1019.3 |
| 20260902174608 | 35 | 248 | 8.0 | 19.3 | 0.00 | 0.00 | 0.00 | 54 | 1019.4 |
| 20260902173109 | 35 | 142 | 6.4 | 14.5 | 0.00 | 0.00 | 0.00 | 55 | 1019.6 |
| 20260902171604 | 35 | 227 | 4.8 | 20.9 | 0.00 | 0.00 | 0.00 | 56 | 1019.9 |
| 20260902170107 | 35 | 211 | 8.0 | 17.7 | 0.00 | 0.00 | 0.00 | 55 | 1020.1 |
| 20260902164605 | 35 | 253 | 6.4 | 17.7 | 0.00 | 0.00 | 0.00 | 56 | 1020.0 |
| 20260902163108 | 35 | 226 | 8.0 | 19.3 | 0.00 | 0.00 | 0.00 | 56 | 1020.1 |
| 20260902161609 | 34 | 263 | 3.2 | 16.1 | 0.00 | 0.00 | 0.00 | 58 | 1020.0 |
| 20260902160104 | 33 | 249 | 4.8 | 11.3 | 0.00 | 0.00 | 0.00 | 59 | 1019.9 |
| 20260902154603 | 33 | 232 | 3.2 | 16.1 | 0.00 | 0.00 | 0.00 | 58 | 1019.9 |
| 20260902153108 | 33 | 321 | 4.8 | 12.9 | 0.00 | 0.00 | 0.00 | 60 | 1020.1 |
| 20260902151609 | 32 | 215 | 8.0 | 16.1 | 0.00 | 0.00 | 0.00 | 62 | 1020.1 |
| 20260902150104 | 31 | 257 | 4.8 | 14.5 | 0.00 | 0.00 | 0.00 | 66 | 1020.2 |
| 20260902144604 | 31 | 207 | 6.4 | 12.9 | 0.00 | 0.00 | 0.00 | 68 | 1020.0 |
| 20260902143111 | 30 | 194 | 1.6 | 14.5 | 0.00 | 0.00 | 0.00 | 71 | 1020.1 |
| 20260902141611 | 28 | 201 | 4.8 | 11.3 | 0.00 | 0.00 | 0.00 | 73 | 1020.1 |
| 20260902140104 | 27 | 0 | 1.6 | 11.3 | 0.00 | 0.00 | 0.00 | 77 | 1020.2 |
| 20260902134610 | 26 | 216 | 6.4 | 14.5 | 0.00 | 0.00 | 0.00 | 79 | 1020.0 |
| 20260902133111 | 26 | 240 | 4.8 | 14.5 | 0.00 | 0.00 | 0.00 | 80 | 1020.0 |
| 20260902131603 | 25 | 224 | 4.8 | 11.3 | 0.00 | 0.00 | 0.00 | 82 | 1020.1 |
| 20260902124613 | 24 | 162 | 4.8 | 11.3 | 0.00 | 0.00 | 0.00 | 84 | 1020.1 |
| 20260902123115 | 24 | 226 | 3.2 | 8.0 | 0.00 | 0.00 | 0.00 | 85 | 1019.9 |
| 20260902121608 | 23 | 219 | 3.2 | 11.3 | 0.00 | 0.00 | 0.00 | 85 | 1019.8 |
| 20260902120107 | 23 | 173 | 3.2 | 12.9 | 0.00 | 0.00 | 0.00 | 85 | 1019.7 |
| 20260902114607 | 23 | 155 | 3.2 | 9.7 | 0.00 | 0.00 | 0.00 | 85 | 1019.6 |
| 20260902113118 | 23 | 0 | 4.8 | 14.5 | 0.00 | 0.00 | 0.00 | 85 | 1019.3 |
| 20260902111601 | 23 | 0 | 3.2 | 8.0 | 0.00 | 0.00 | 0.00 | 85 | 1019.3 |
| 20260902110100 | 23 | 177 | 1.6 | 9.7 | 0.00 | 0.00 | 0.00 | 85 | 1019.2 |
| 20260902104603 | 23 | 171 | 1.6 | 9.7 | 0.00 | 0.00 | 0.00 | 85 | 1019.2 |
| 20260902103107 | 23 | 200 | 3.2 | 12.9 | 0.00 | 0.00 | 0.00 | 85 | 1019.1 |
| 20260902101601 | 23 | 174 | 1.6 | 11.3 | 0.00 | 0.00 | 0.00 | 86 | 1019.1 |
| 20260902100124 | 23 | 175 | 3.2 | 11.3 | 0.00 | 0.00 | 0.00 | 86 | 1019.1 |
| 20260902094600 | 23 | 212 | 3.2 | 12.9 | 0.00 | 0.00 | 0.00 | 86 | 1019.2 |
| 20260902093104 | 23 | 202 | 1.6 | 9.7 | 0.00 | 0.00 | 0.00 | 86 | 1019.1 |
| 20260902091610 | 23 | 209 | 0.0 | 4.8 | 0.00 | 0.00 | 0.00 | 84 | 1019.1 |
| 20260902090106 | 23 | 169 | 0.0 | 4.8 | 0.00 | 0.00 | 0.00 | 83 | 1019.0 |
| 20260902084604 | 23 | 0 | 0.0 | 6.4 | 0.00 | 0.00 | 0.00 | 83 | 1018.9 |
| 20260902083103 | 24 | 0 | 0.0 | 3.2 | 0.00 | 0.00 | 0.00 | 83 | 1018.8 |
| 20260902081601 | 24 | 0 | 0.0 | 9.7 | 0.00 | 0.00 | 0.00 | 83 | 1018.8 |
| 20260902080116 | 24 | 198 | 0.0 | 6.4 | 0.00 | 0.00 | 0.00 | 82 | 1018.7 |
| 20260902074623 | 24 | 179 | 0.0 | 3.2 | 0.00 | 0.00 | 0.00 | 81 | 1018.5 |
| 20260902073111 | 25 | 182 | 0.0 | 4.8 | 0.00 | 0.00 | 0.00 | 80 | 1018.5 |
| 20260902071628 | 25 | 203 | 0.0 | 6.4 | 0.00 | 0.00 | 0.00 | 80 | 1018.5 |
| 20260902070110 | 25 | 0 | 1.6 | 6.4 | 0.00 | 0.00 | 0.00 | 80 | 1018.6 |
| 20260902064614 | 25 | 0 | 1.6 | 8.0 | 0.00 | 0.00 | 0.00 | 79 | 1018.4 |
| 20260902063103 | 25 | 218 | 3.2 | 9.7 | 0.00 | 0.00 | 0.00 | 79 | 1018.7 |
| 20260902061616 | 25 | 0 | 1.6 | 8.0 | 0.00 | 0.00 | 0.00 | 78 | 1018.6 |
| 20260902060126 | 26 | 216 | 1.6 | 9.7 | 0.00 | 0.00 | 0.00 | 78 | 1018.7 |
| 20260902054624 | 26 | 246 | 0.0 | 6.4 | 0.00 | 0.00 | 0.00 | 77 | 1018.7 |
| 20260902053109 | 26 | 193 | 3.2 | 9.7 | 0.00 | 0.00 | 0.00 | 77 | 1018.6 |
| 20260902051606 | 26 | 181 | 1.6 | 8.0 | 0.00 | 0.00 | 0.00 | 76 | 1018.7 |
| 20260902050114 | 26 | 217 | 1.6 | 9.7 | 0.00 | 0.00 | 0.00 | 76 | 1018.6 |
| 20260902044627 | 26 | 260 | 0.0 | 6.4 | 0.00 | 0.00 | 0.00 | 76 | 1018.7 |
| 20260902043114 | 26 | 207 | 1.6 | 9.7 | 0.00 | 0.00 | 0.00 | 75 | 1018.8 |
| 20260902041605 | 27 | 0 | 1.6 | 8.0 | 0.00 | 0.00 | 0.00 | 75 | 1018.8 |
| 20260902040105 | 27 | 0 | 1.6 | 9.7 | 0.00 | 0.00 | 0.00 | 74 | 1018.8 |
| 20260902034605 | 27 | 0 | 1.6 | 9.7 | 0.00 | 0.00 | 0.00 | 74 | 1018.7 |
| 20260902033103 | 27 | 244 | 3.2 | 8.0 | 0.00 | 0.00 | 0.00 | 74 | 1018.7 |
| 20260902031608 | 27 | 178 | 1.6 | 9.7 | 0.00 | 0.00 | 0.00 | 74 | 1018.7 |
| 20260902030100 | 27 | 189 | 3.2 | 9.7 | 0.00 | 0.00 | 0.00 | 74 | 1018.8 |
| 20260902024604 | 28 | 194 | 1.6 | 8.0 | 0.00 | 0.00 | 0.00 | 73 | 1018.9 |
| 20260902023116 | 28 | 0 | 1.6 | 9.7 | 0.00 | 0.00 | 0.00 | 73 | 1018.9 |
| 20260902021605 | 28 | 226 | 0.0 | 8.0 | 0.00 | 0.00 | 0.00 | 73 | 1018.8 |
| 20260902014604 | 28 | 196 | 1.6 | 8.0 | 0.00 | 0.00 | 0.00 | 72 | 1018.6 |
| 20260902013102 | 28 | 212 | 3.2 | 9.7 | 0.00 | 0.00 | 0.00 | 71 | 1018.4 |
| 20260902011604 | 29 | 220 | 3.2 | 11.3 | 0.00 | 0.00 | 0.00 | 70 | 1018.3 |